Weather History for Janesville, WI

Change the Weather History Date:

Thursday, March 7, 2013

  Actual Average Record
Temperature  
Mean Temperature 24 °F -  
Max Temperature 33 °F 35 °F 66 °F (2012)
Min Temperature 15 °F 20 °F 3 °F (1999)
Degree Days  
Heating Degree Days 41    
Moisture  
Dew Point 18 °F    
Average Humidity 73    
Maximum Humidity 86    
Minimum Humidity 56    
Precipitation  
Precipitation 0.00 in - - ()
Sea Level Pressure  
Sea Level Pressure 30.36 in    
Wind  
Wind Speed 2 mph (NNW)    
Max Wind Speed 6 mph    
Max Gust Speed -    
Visibility 10 miles    
Events      
Averages and records for this station are not official NWS values.
T = Trace of Precipitation, MM = Missing Value Source: NWS Daily Summary

Daily Weather History Graph

Daily Weather History Graph

Search for Another Location

Airport:

Trip Planner

Search our weather history database for the weather conditions in past years. The results will help you decide how hot, cold, wet, or windy it might be!

Date:

Astronomy

Mar. 07, 2013 Rise Set
Actual Time 6:21 AM CST 5:53 PM CST
Civil Twilight 5:53 AM CST 6:21 PM CST
Nautical Twilight 5:20 AM CST 6:54 PM CST
Astronomical Twilight 4:47 AM CST 7:27 PM CST
Moon 3:25 AM CST (3/7) 1:36 PM CST (3/7)
Length of Visible Light 12h 28m
Length of Day
11h 32m
Waning Crescent, 20% of the Moon is Illuminated
Mar 7
Waning Crescent
Mar 11
New
Mar 19
First Quarter
Mar 27
Full
Apr 2
Last Quarter

Hourly Weather History & Observations

Time (CST) Temp. Windchill Dew Point Humidity Pressure Visibility Wind Dir Wind Speed Gust Speed Precip Events Conditions
12:15 AM 30.2 °F - 23.0 °F 75% 30.29 in 10.0 mi Calm Calm - N/A   Overcast
12:35 AM 30.2 °F - 23.0 °F 75% 30.30 in 10.0 mi Calm Calm - N/A   Overcast
12:55 AM 30.2 °F 25.4 °F 23.0 °F 75% 30.31 in 10.0 mi WNW 4.6 mph - N/A   Overcast
1:15 AM 30.2 °F 25.4 °F 23.0 °F 75% 30.31 in 10.0 mi WNW 4.6 mph - N/A   Overcast
1:35 AM 30.2 °F 25.4 °F 23.0 °F 75% 30.32 in 10.0 mi WNW 4.6 mph - N/A   Overcast
1:55 AM 30.2 °F 25.4 °F 23.0 °F 75% 30.33 in 10.0 mi WNW 4.6 mph - N/A   Overcast
2:15 AM 30.2 °F 26.7 °F 21.2 °F 69% 30.33 in 10.0 mi NW 3.5 mph - N/A   Overcast
2:35 AM 30.2 °F - 23.0 °F 75% 30.33 in 10.0 mi Calm Calm - N/A   Overcast
2:55 AM 30.2 °F 26.7 °F 21.2 °F 69% 30.33 in 10.0 mi NW 3.5 mph - N/A   Overcast
3:15 AM 30.2 °F 24.3 °F 21.2 °F 69% 30.33 in 10.0 mi NNW 5.8 mph - N/A   Overcast
3:35 AM 28.4 °F 23.3 °F 21.2 °F 74% 30.33 in 10.0 mi NW 4.6 mph - N/A   Overcast
3:55 AM 28.4 °F 24.6 °F 19.4 °F 69% 30.33 in 10.0 mi NNW 3.5 mph - N/A   Overcast
4:15 AM 28.4 °F - 19.4 °F 69% 30.33 in 10.0 mi Calm Calm - N/A   Overcast
4:35 AM 26.6 °F - 19.4 °F 74% 30.32 in 10.0 mi Calm Calm - N/A   Overcast
6:45 AM 21.2 °F - 15.8 °F 80% 30.36 in 10.0 mi Calm Calm - N/A   Scattered Clouds
7:45 AM 21.2 °F - 15.8 °F 80% 30.38 in 10.0 mi Calm Calm - N/A   Clear
8:45 AM 26.6 °F - 15.8 °F 64% 30.39 in 10.0 mi Calm Calm - N/A   Clear
9:45 AM 26.6 °F - 15.8 °F 64% 30.40 in 10.0 mi Calm Calm - N/A   Clear
10:45 AM 30.2 °F - 17.6 °F 60% 30.38 in 10.0 mi Calm Calm - N/A   Clear
11:45 AM 33.8 °F - 19.4 °F 56% 30.39 in 10.0 mi Calm Calm - N/A   Clear
12:45 PM 33.8 °F - 19.4 °F 56% 30.38 in 10.0 mi Calm Calm - N/A   Clear
1:45 PM 33.8 °F - 19.4 °F 56% 30.36 in 10.0 mi Calm Calm - N/A   Clear
3:45 PM 33.8 °F 28.6 °F 21.2 °F 60% 30.36 in 10.0 mi NW 5.8 mph - N/A   Clear
4:45 PM 33.8 °F 29.6 °F 21.2 °F 60% 30.36 in 10.0 mi NNW 4.6 mph - N/A   Clear
5:45 PM 28.4 °F - 19.4 °F 69% 30.38 in 10.0 mi Calm Calm - N/A   Clear
6:45 PM 26.6 °F - 17.6 °F 69% 30.39 in 10.0 mi Calm Calm - N/A   Clear
7:45 PM 26.6 °F - 17.6 °F 69% 30.09 in 10.0 mi Calm Calm - N/A   Clear
8:15 PM 23.0 °F - 17.6 °F 80% 30.39 in 10.0 mi Calm Calm - N/A   Clear
8:35 PM 23.0 °F - 17.6 °F 80% 30.39 in 10.0 mi Calm Calm - N/A   Clear
8:45 PM 21.2 °F - 17.6 °F 86% 30.39 in 10.0 mi Calm Calm - N/A   Clear
8:55 PM 23.0 °F - 17.6 °F 80% 30.39 in 10.0 mi Calm Calm - N/A   Clear
9:15 PM 21.2 °F - 15.8 °F 80% 30.40 in 10.0 mi Calm Calm - N/A   Clear
9:35 PM 19.4 °F - 14.0 °F 80% 30.40 in 10.0 mi Calm Calm - N/A   Clear
9:55 PM 17.6 °F 12.3 °F 12.2 °F 79% 30.40 in 10.0 mi ENE 3.5 mph - N/A   Clear
10:15 PM 17.6 °F 12.3 °F 12.2 °F 79% 30.40 in 10.0 mi ENE 3.5 mph - N/A   Clear
10:35 PM 15.8 °F 8.6 °F 12.2 °F 86% 30.40 in 10.0 mi ENE 4.6 mph - N/A   Clear
10:55 PM 15.8 °F 8.6 °F 10.4 °F 79% 30.40 in 10.0 mi East 4.6 mph - N/A   Clear
11:15 PM 17.6 °F - 12.2 °F 79% 30.40 in 10.0 mi Calm Calm - N/A   Clear
11:35 PM 15.8 °F 8.6 °F 10.4 °F 79% 30.40 in 10.0 mi ENE 4.6 mph - N/A   Clear
11:55 PM 15.8 °F 10.2 °F 10.4 °F 79% 30.39 in 10.0 mi East 3.5 mph - N/A   Clear